Weather Service Report


355 
ASUS41 KBOX 282110
RWRBOX

REGIONAL WEATHER ROUNDUP
NATIONAL WEATHER SERVICE TAUNTON MA
500 PM EDT SUN AUG 28 2016

NOTE:  "FAIR" INDICATES FEW OR NO CLOUDS BELOW 12,000 FEET WITH NO 
SIGNIFICANT WEATHER AND/OR OBSTRUCTIONS TO VISIBILITY.

MAZALL-282200-
EASTERN MASSACHUSETTS
  
CITY           SKY/WX    TMP DP  RH WIND       PRES   REMARKS
BOSTON         MOSUNNY   74  65  73 E18       30.18F                  
BEVERLY        SUNNY     74  64  71 SE14      30.18F                  
LAWRENCE       SUNNY     80  56  43 VRB6G17   30.18F                  
BEDFORD        MOSUNNY   83  55  38 E15       30.15F                  
BLUE HILL        N/A     79  58  48 SE15G24   30.18F                  
NORWOOD        MOSUNNY   83  60  45 SE9       30.16F                  
MARSHFIELD     SUNNY     75  64  69 SE10      30.19F                  
PLYMOUTH       SUNNY     80  59  48 SE10      30.20F                  
TAUNTON        SUNNY     82  61  48 S9        30.18F                  
NEW BEDFORD    SUNNY     80  63  55 SE15      30.20F                  
$$

MAZALL-282200-
CAPE COD AND THE ISLANDS
  
CITY           SKY/WX    TMP DP  RH WIND       PRES   REMARKS
FALMOUTH       SUNNY     77  59  53 SE16      30.23S                  
HYANNIS        SUNNY     74  61  63 SE9       30.21F                  
CHATHAM        SUNNY     72  64  76 E8        30.24F                  
PROVINCETOWN   SUNNY     77  63  61 SE12      30.21F                  
NANTUCKET      SUNNY     72  64  76 E10       30.22F                  
MARTHAS VNYRD  SUNNY     76  65  68 SE13      30.22S                  
$$
 
MAZALL-282200-
CENTRAL AND WESTERN MASSACHUSETTS
  
CITY           SKY/WX    TMP DP  RH WIND       PRES   REMARKS
WORCESTER      SUNNY     80  59  48 SW10      30.21F                  
FITCHBURG      SUNNY     86  60  41 S10       30.17F                  
ORANGE         SUNNY     84  62  47 S13       30.16F                  
SPRINGFIELD    SUNNY     87  63  44 S15       30.13F                  
WESTFIELD      SUNNY     86  63  45 S15       30.14F                  
NORTH ADAMS    SUNNY     84  62  47 VRB6      30.14F                  
PITTSFIELD     SUNNY     82  61  48 SW7       30.17F                  
$$
 
RIZALL-282200-
RHODE ISLAND
  
CITY           SKY/WX    TMP DP  RH WIND       PRES   REMARKS
PROVIDENCE     MOSUNNY   82  56  40 S15       30.20F                  
NEWPORT        SUNNY     76  62  62 S12       30.21F                  
BLOCK ISLAND   SUNNY     77  61  57 S12       30.22F                  
SMITHFIELD     SUNNY     82  61  48 VRB7      30.19F                  
WESTERLY       SUNNY     78  59  51 S9        30.22F                  
$$
 
CTZALL-282200-
CONNECTICUT
  
CITY           SKY/WX    TMP DP  RH WIND       PRES   REMARKS
BRADLEY INTL   MOSUNNY   86  61  42 S14       30.16F                  
HARTFORD       MOSUNNY   87  61  41 S12       30.15F                  
BRIDGEPORT     SUNNY     83  66  56 SE10      30.18F                  
DANBURY        SUNNY     82  64  54 SW12      30.19F                  
GROTON         SUNNY     78  64  61 SE10      30.20F                  
NEW HAVEN      SUNNY     82  64  54 SE9       30.19F                  
CHESTER        FAIR      81  63  54 SE9       30.21S                  
MERIDEN        SUNNY     86  61  42 S10       30.17F                  
WILLIMANTIC    MOSUNNY   84  60  44 S13       30.19F                  
OXFORD         MOSUNNY   82  61  47 SW10      30.23F                  
$$

MEZ002-015-021-024-NHZ003-005-008-011-012-014-VTZ005-008-282200-
NORTHERN NEW ENGLAND
  
CITY           SKY/WX    TMP DP  RH WIND       PRES   REMARKS
PORTLAND ME    MOSUNNY   74  59  59 S14G22    30.18F                  
BANGOR ME      CLOUDY    72  56  57 S14       30.19F                  
CONCORD NH     SUNNY     86  60  41 S12       30.14F                  
MANCHESTER NH  MOSUNNY   85  58  39 S9        30.13F                  
NASHUA NH      SUNNY     86  62  44 VRB5G16   30.15F                  
PORTSMOUTH NH  MOSUNNY   75  60  60 SE20G26   30.16F                  
JAFFREY NH     SUNNY     83  59  44 SW8       30.19F                  
KEENE NH       SUNNY     85  65  51 S10       30.14F                  
BURLINGTON VT  PTSUNNY   84  65  52 S16G33    30.03F                  
MT. WASHINGTON PTSUNNY   57  54  88 SW26G32     N/A                   
$$

NYZ052-076-282200-
EASTERN NEW YORK
  
CITY           SKY/WX    TMP DP  RH WIND       PRES   REMARKS
ALBANY         MOSUNNY   87  63  44 S16       30.11F                  
NEW YORK CITY  MOSUNNY   86  58  38 S14       30.17F                  
$$
 
ANZALL-282200-
MARINE OBSERVATIONS
  
STATION/POSITION TIME  TEMP    WIND        PRES    VSBY  WAVE
                       AIR SEA DIR/SP/G                  HT/PER
                 (UTC) (F)     (DEG/KT/KT) (MB)    (MI)  (FT/S)
BOSTON BUOY      2050   70 71  120/ 14/ 16 1022.0F         1/ 2
BUZZARDS BAY     2000   72     160/ 10/ 11 1024.0F
NANTUCKET SOUND  2050   70 76  110/ 12/ 14 1023.1F         1/ 3
MASS BAY-STELLWA 2004   70 69  130/ 14/ 17 1022.5F  1 7/8  3/11
ISLE OF SHOALS   2100   70     150/ 20/ 22 1021.4F
S OF BLOCK IS    2025      77                N/A           2/15
$$

......................KEY.........................
  SKY/WX - SKY CONDITION/PRESENT WEATHER
  TMP    - TEMPERATURE IN FAHRENHEIT
  DWPT   - DEWPOINT IN FAHRENHEIT
  RH     - RELATIVE HUMIDITY IN PERCENT
  WIND   - DIRECTION AND SPEED IN MPH
  PRES   - MEAN SEA LEVEL PRESSURE IN INCHES OF HG
  WCI    - WIND CHILL INDEX
  VSB    - VISIBILITY IN MILES
  HX     - HEAT INDEX
  TC     - TEMPERATURE IN CELSIUS
  VRB    - VARIABLE WIND DIRECTION
  N/A    - NOT AVAILABLE
  

Return to Home page


Western Regional Climate Center, wrcc@dri.edu